Atlanta, GA

9:13 AM EST on December 13, 2019 (GMT -0500)
The Hartsfield Atlanta International

Weather History for KATL - October, 2019

Change the Weather History Date:

Wednesday, October 9, 2019

  Actual Average Record
Temperature  
Mean Temperature 70 °F 65 °F  
Max Temperature 77 °F 75 °F 91 °F (1941)
Min Temperature 64 °F 56 °F 36 °F (2000)
Degree Days  
Heating Degree Days 0 2  
Month to date heating degree days 0 15  
Since 1 July heating degree days 0 26  
Cooling Degree Days 6 3  
Month to date cooling degree days 124 32  
Year to date cooling degree days 2601 1837  
Growing Degree Days 20 (Base 50)    
Moisture  
Dew Point 59 °F    
Average Humidity 70    
Maximum Humidity 81    
Minimum Humidity 56    
Precipitation  
Precipitation 0.00 in 0.12 in 1.53 in (1977)
Month to date precipitation 0.00 1.17  
Year to date precipitation 32.33 39.47  
Sea Level Pressure  
Sea Level Pressure 30.11 in    
Wind  
Wind Speed 10 mph ()    
Max Wind Speed 17 mph    
Max Gust Speed 22 mph    
Visibility 9.9 miles    
Events      
T = Trace of Precipitation, MM = Missing Value Source: Averaged Metar Reports

Daily Weather History Graph

Daily Weather History Graph

Search for Another Location

Airport or City:

Astronomy

Oct. 09, 2019 Rise Set
Actual Time 7:37 AM EDT 7:11 PM EDT
Civil Twilight 7:12 AM EDT 7:36 PM EDT
Nautical Twilight 6:43 AM EDT 8:05 PM EDT
Astronomical Twilight 6:15 AM EDT 8:34 PM EDT
Moon 5:28 PM EDT (10/9) 3:39 AM EDT (10/9)
Length of Visible Light 12h 23m
Length of Day
11h 34m
Waxing Gibbous, 85% of the Moon is Illuminated
Oct 9
Waxing Gibbous
Oct 13
Full
Oct 21
Last Quarter
Oct 27
New
Nov 4
First Quarter

Hourly Weather History & Observations

Time (EDT) Temp. Dew Point Humidity Pressure Visibility Wind Dir Wind Speed Gust Speed Precip Events Conditions
1:05 AM 69.1 °F 63.0 °F 81% 30.07 in 10.0 mi East 10.4 mph - N/A   Mostly Cloudy
1:52 AM 69.1 °F 62.1 °F 78% 30.05 in 10.0 mi East 16.1 mph - N/A   Overcast
2:52 AM 68.0 °F 61.0 °F 78% 30.05 in 10.0 mi East 10.4 mph - N/A   Overcast
3:52 AM 66.9 °F 59.0 °F 76% 30.05 in 10.0 mi ENE 15.0 mph - N/A   Overcast
5:52 AM 66.0 °F 57.9 °F 75% 30.07 in 10.0 mi East 10.4 mph - N/A   Overcast
6:52 AM 66.0 °F 57.9 °F 75% 30.09 in 10.0 mi ENE 10.4 mph - N/A   Overcast
7:52 AM 64.9 °F 57.9 °F 78% 30.11 in 8.0 mi East 15.0 mph - N/A   Overcast
8:52 AM 64.9 °F 57.9 °F 78% 30.12 in 9.0 mi East 12.7 mph - N/A   Overcast
9:52 AM 64.9 °F 57.9 °F 78% 30.15 in 10.0 mi East 12.7 mph - N/A   Overcast
10:52 AM 66.0 °F 57.9 °F 75% 30.16 in 10.0 mi East 13.8 mph - N/A   Overcast
11:52 AM 66.9 °F 57.9 °F 73% 30.17 in 10.0 mi ENE 11.5 mph - N/A   Overcast
12:26 PM 68.0 °F 57.9 °F 70% 30.18 in 10.0 mi ENE 11.5 mph - N/A   Overcast
12:52 PM 69.1 °F 57.9 °F 68% 30.16 in 10.0 mi NE 10.4 mph - N/A   Overcast
1:50 PM 73.4 °F 59.0 °F 61% 30.14 in 10.0 mi ENE 8.1 mph 17.3 mph N/A   Scattered Clouds
1:52 PM 73.0 °F 59.0 °F 61% 30.12 in 10.0 mi ESE 9.2 mph 17.3 mph N/A   Scattered Clouds
2:52 PM 73.9 °F 59.0 °F 59% 30.10 in 10.0 mi SE 8.1 mph - N/A   Scattered Clouds
3:52 PM 75.9 °F 60.1 °F 58% 30.09 in 10.0 mi East 8.1 mph - N/A   Partly Cloudy
4:52 PM 75.9 °F 60.1 °F 58% 30.07 in 10.0 mi ENE 6.9 mph - N/A   Partly Cloudy
5:52 PM 75.9 °F 59.0 °F 56% 30.07 in 10.0 mi East 9.2 mph - N/A   Partly Cloudy
6:52 PM 73.0 °F 59.0 °F 61% 30.07 in 10.0 mi East 10.4 mph - N/A   Partly Cloudy
7:52 PM 72.0 °F 59.0 °F 64% 30.09 in 10.0 mi ENE 10.4 mph - N/A   Partly Cloudy
8:52 PM 70.0 °F 59.0 °F 68% 30.10 in 10.0 mi East 11.5 mph - N/A   Clear
9:52 PM 68.0 °F 59.0 °F 73% 30.12 in 10.0 mi East 10.4 mph - N/A   Partly Cloudy
10:52 PM 66.9 °F 57.9 °F 73% 30.12 in 10.0 mi East 10.4 mph - N/A   Partly Cloudy
11:52 PM 66.0 °F 57.9 °F 75% 30.13 in 10.0 mi East 8.1 mph - N/A   Partly Cloudy